Regional Weather Roundup
Issued by NWS Green Bay, WI

Home | Current Version | Previous Version | Graphics & Text | Print | Product List | Glossary Off
Versions: 1 2 3 4 5 6 7 8 9 10 11 12 13 14 15 16 17 18 19 20 21 22 23 24 25 26 27 28 29 30 31 32 33 34 35 36 37 38 39 40 41 42 43 44 45 46 47 48 49 50

000
ASUS43 KGRB 281000
RWRGRB

NORTH-CENTRAL AND NORTHEAST WISCONSIN REGIONAL WEATHER ROUNDUP
NATIONAL WEATHER SERVICE GREEN BAY WI
500 AM CDT SAT MAY 28 2016

WIZ005-009-010>012-018-019-281100-
NORTH CENTRAL WISCONSIN

CITY           SKY/WX    TMP DP  RH WIND       PRES   REMARKS
IRONWOOD       PTCLDY    63  63 100 CALM      29.74S
MANITOWISH WTR NOT AVBL
ARBOR VITAE    NOT AVBL
EAGLE RIVER    NOT AVBL
LAND O LAKES   NOT AVBL
RHINELANDER    CLOUDY    66  64  93 CALM      29.80S
PHILLIPS       NOT AVBL
ANTIGO         NOT AVBL
TOMAHAWK       NOT AVBL
MERRILL        NOT AVBL
$$

WIZ013-073-281100-
NORTHEAST WISCONSIN

CITY           SKY/WX    TMP DP  RH WIND       PRES   REMARKS
IRON MOUNTAIN  FOG       62  61  96 SE3       29.81R VSB 1/2
MARINETTE      CLOUDY    61  59  94 CALM      29.83R
$$

WIZ017-030-035>037-045-281100-
CENTRAL WISCONSIN

CITY           SKY/WX    TMP DP  RH WIND       PRES   REMARKS
MEDFORD        NOT AVBL
WAUSAU         CLOUDY    69  66  90 SE5       29.76F FOG
MOSINEE        NOT AVBL
MARSHFIELD     CLOUDY    68  65  90 CALM      29.76F FOG
WISC RAPIDS    CLOUDY    68  65  90 SE5       29.77F FOG
STEVENS POINT  NOT AVBL
WAUPACA        NOT AVBL
SHAWANO        NOT AVBL
CLINTONVILLE   NOT AVBL
WAUTOMA        LGT RAIN  68  66  93 SE7       29.79S
$$

WIZ038-039-048-051-281100-
FOX VALLEY

CITY           SKY/WX    TMP DP  RH WIND       PRES   REMARKS
NWS GREEN BAY  CLOUDY    68  65  90 S7        29.81S
APPLETON       NOT AVBL
OSHKOSH        LGT RAIN  68  64  87 S12       29.80S
FOND DU LAC    CLOUDY    68  65  90 S8        29.81S
$$

WIZ022-050-052-281100-
EAST CENTRAL WISCONSIN

CITY           SKY/WX    TMP DP  RH WIND       PRES   REMARKS
EPHRAIM        NOT AVBL
STURGEON BAY   NOT AVBL
MANITOWOC      NOT AVBL
SHEBOYGAN      CLOUDY    65  62  90 SE6       29.84R
$$

LMZ563-521-522-541>543-281100-
LAKESHORE

STATION/POSITION TIME  TEMP    WIND        PRES    VSBY  WAVE
                       AIR SEA DIR/SP/G                  HT/PER
                 (UTC) (F)     (DEG/KT/KT) (MB)    (MI)  (FT/S)
SHEBOYGAN LKSHOR 0900   59     180/ 11/ 13 1010.5R
KEWAUNEE LKSHORE 0900   53     170/ 12/ 15 1009.5R
ALGOMA MARINA    0917          200/  6/  7   N/A
NORTHPORT PIER   0900   56     160/  9/ 14 1010.2R
N MID LAKE BUOY  0850   52 46  170/  8/ 10 1010.4R         1
SISTER BAY LKSHO 0950   57     170/ 14/ 18   N/A
CHAMBERS ISLAND  0900   59     140/  4/  9 1009.8R
MENOMINEE LKSHOR 0900   58     160/  8/  9 1008.5R
$$




USA.gov is the U.S. government's official web portal to all federal, state and local government web resources and services.